Weather History for YBCS - January, 2011

Change the Weather History Date:

Monday, January 3, 2011

  Actual Average Record
Temperature  
Mean Temperature 80 °F -  
Max Temperature 86 °F 89 °F 92 °F (2015)
Min Temperature 75 °F 74 °F 69 °F (2012)
Cooling Degree Days 16    
Growing Degree Days 30 (Base 50)    
Moisture  
Dew Point 74 °F    
Average Humidity 86    
Maximum Humidity 100    
Minimum Humidity 61    
Precipitation  
Precipitation 0.31 in 0.52 in - ()
Sea Level Pressure  
Sea Level Pressure 29.75 in    
Wind  
Wind Speed 5 mph ()    
Max Wind Speed 12 mph    
Max Gust Speed -    
Visibility 6.3 miles    
Events Rain    
Averages and records for this station are not official NWS values.
T = Trace of Precipitation, MM = Missing Value Source: Averaged Metar Reports

Daily Weather History Graph

Daily Weather History Graph

Search for Another Location

Airport or City:

Trip Planner

Search our weather history database for the weather conditions in past years. The results will help you decide how hot, cold, wet, or windy it might be!

Date:

Astronomy

Jan. 03, 2011 Rise Set
Actual Time 5:47 AM AEST 6:54 PM AEST
Civil Twilight 5:23 AM AEST 7:18 PM AEST
Nautical Twilight 4:55 AM AEST 7:46 PM AEST
Astronomical Twilight 4:26 AM AEST 8:15 PM AEST
Moon 4:26 AM AEST (1/3) 5:57 PM AEST (1/3)
Length of Visible Light 13h 54m
Length of Day
13h 06m
Waning Crescent, 2% of the Moon is Illuminated
Jan 3
Waning Crescent
Jan 4
New
Jan 12
First Quarter
Jan 20
Full
Jan 26
Last Quarter

Hourly Weather History & Observations

Time (AEST) Temp. Heat Index Dew Point Humidity Pressure Visibility Wind Dir Wind Speed Gust Speed Precip Events Conditions
12:00 AM 76 °F - 75 °F 95% 29.80 in 7 mi West 3.5 mph - - Rain Light Rain
12:00 AM 77.0 °F - 75.2 °F 94% 29.80 in 6.2 mi West 3.5 mph - N/A Rain Light Rain
12:30 AM 77.0 °F - 75.2 °F 94% 29.80 in 5.6 mi Calm Calm - N/A Rain Light Rain
1:00 AM 76 °F - 75 °F 96% 29.81 in - Calm Calm - -  
1:00 AM 75.2 °F - 75.2 °F 100% 29.80 in 6.2 mi Calm Calm - N/A Rain Light Rain
1:30 AM 75.2 °F - 75.2 °F 100% 29.77 in 6.2 mi SSE 5.8 mph - N/A Rain Light Rain
2:00 AM 75.2 °F - 75.2 °F 100% 29.77 in 5.6 mi WSW 2.3 mph - N/A Rain Light Rain
2:30 AM 75.2 °F - 75.2 °F 100% 29.74 in 6.2 mi WSW 1.2 mph - N/A Rain Light Rain
3:00 AM 76 °F - 75 °F 94% 29.74 in 12 mi SSE 11.5 mph - - Rain Light Rain
3:00 AM 75.2 °F - 75.2 °F 100% 29.74 in 6.2 mi SSE 11.5 mph - N/A   Mostly Cloudy
3:30 AM 75.2 °F - 73.4 °F 94% 29.71 in 6.2 mi SSE 11.5 mph - N/A   Mostly Cloudy
4:00 AM 76 °F - 74 °F 91% 29.73 in - SSE 10.4 mph - -  
4:00 AM 75.2 °F - 73.4 °F 94% 29.71 in 6.2 mi SSE 10.4 mph - N/A   Mostly Cloudy
5:00 AM 75.2 °F - 75.2 °F 100% 29.71 in 6.2 mi Calm Calm - N/A   Overcast
5:30 AM 75.2 °F - 73.4 °F 94% 29.74 in 6.2 mi NW 3.5 mph - N/A   Overcast
6:00 AM 76 °F - 73 °F 88% 29.76 in 12 mi West 5.8 mph - -   Partly Cloudy
6:00 AM 77.0 °F - 73.4 °F 89% 29.74 in 6.2 mi West 5.8 mph - N/A   Mostly Cloudy
6:30 AM 77.0 °F - 73.4 °F 89% 29.77 in 6.2 mi West 4.6 mph - N/A   Mostly Cloudy
7:00 AM 77 °F - 75 °F 92% 29.79 in - South 4.6 mph - -  
7:00 AM 77.0 °F - 75.2 °F 94% 29.77 in 6.2 mi South 4.6 mph - N/A   Overcast
7:30 AM 78.8 °F - 75.2 °F 89% 29.77 in 6.2 mi SSE 3.5 mph - N/A   Overcast
8:00 AM 78.8 °F - 75.2 °F 89% 29.80 in 6.2 mi SE 3.5 mph - N/A Rain Light Rain
8:30 AM 80.6 °F 85.4 °F 73.4 °F 79% 29.80 in 6.2 mi SW 2.3 mph - N/A Rain Light Rain
9:00 AM 82 °F - 74 °F 72% 29.81 in 9 mi WNW 5.8 mph - - Rain Light Rain
9:00 AM 82.4 °F 89.5 °F 75.2 °F 79% 29.80 in 6.2 mi WNW 5.8 mph - N/A Rain Light Rain
9:30 AM 82.4 °F 89.5 °F 75.2 °F 79% 29.80 in 6.2 mi NW 5.8 mph - N/A   Unknown
10:00 AM 84 °F - 74 °F 65% 29.80 in - NNW 6.9 mph - -  
10:00 AM 84.2 °F 90.9 °F 73.4 °F 70% 29.80 in 6.2 mi NNW 6.9 mph - N/A   Mostly Cloudy
10:30 AM 86.0 °F 95.1 °F 75.2 °F 70% 29.77 in 6.2 mi NNW 5.8 mph - N/A   Mostly Cloudy
11:00 AM 86.0 °F 95.1 °F 75.2 °F 70% 29.77 in 6.2 mi NNE 9.2 mph - N/A   Mostly Cloudy
11:30 AM 86.0 °F 95.1 °F 75.2 °F 70% 29.77 in 6.2 mi North 9.2 mph - N/A   Mostly Cloudy
12:00 PM 85 °F - 75 °F 66% 29.77 in 16 mi NNE 8.1 mph - -   Partly Cloudy
12:00 PM 84.2 °F 92.3 °F 75.2 °F 74% 29.77 in 6.2 mi NNE 8.1 mph - N/A   Mostly Cloudy
12:30 PM 84.2 °F 92.3 °F 75.2 °F 74% 29.74 in 6.2 mi NNE 9.2 mph - N/A   Unknown
1:00 PM 84 °F - 72 °F 61% 29.73 in - North 9.2 mph - -  
1:00 PM 84.2 °F 90.9 °F 73.4 °F 70% 29.71 in 6.2 mi North 9.2 mph - N/A   Mostly Cloudy
1:30 PM 84.2 °F 90.9 °F 73.4 °F 70% 29.71 in 6.2 mi North 8.1 mph - N/A   Mostly Cloudy
2:00 PM 84.2 °F 92.3 °F 75.2 °F 74% 29.71 in 6.2 mi NNE 6.9 mph - N/A   Mostly Cloudy
2:30 PM 82.4 °F 89.5 °F 75.2 °F 79% 29.71 in 6.2 mi NNE 8.1 mph - N/A   Overcast
3:00 PM 84 °F - 75 °F 68% 29.70 in 9 mi North 8.1 mph - - Rain Light Rain
3:00 PM 84.2 °F 92.3 °F 75.2 °F 74% 29.68 in 6.2 mi North 8.1 mph - N/A Rain Light Rain
3:30 PM 84.2 °F 92.3 °F 75.2 °F 74% 29.68 in 6.2 mi North 8.1 mph - N/A   Mostly Cloudy
4:00 PM 83 °F - 75 °F 70% 29.70 in - North 6.9 mph - -  
4:00 PM 82.4 °F 89.5 °F 75.2 °F 79% 29.68 in 6.2 mi North 6.9 mph - N/A   Mostly Cloudy
4:30 PM 82.4 °F 89.5 °F 75.2 °F 79% 29.68 in 6.2 mi North 8.1 mph - N/A   Scattered Clouds
5:00 PM 82.4 °F 90.9 °F 77.0 °F 84% 29.68 in 5.6 mi North 5.8 mph - N/A   Mostly Cloudy
5:14 PM 80.6 °F 87.1 °F 77.0 °F 89% 29.71 in 3.1 mi North 5.8 mph - N/A Rain Light Rain Showers
5:30 PM 78.8 °F - 75.2 °F 89% 29.71 in 5.0 mi North 5.8 mph - N/A Rain Rain Showers
5:53 PM 77.0 °F - 73.4 °F 89% 29.71 in 2.5 mi SSE 10.4 mph - N/A Rain Light Rain Showers
6:00 PM 78 °F - 72 °F 76% 29.73 in 5 mi SSE 5.8 mph - -   Overcast
6:00 PM 78.8 °F - 71.6 °F 78% 29.71 in 2.5 mi SSE 5.8 mph - N/A Rain Light Rain Showers
6:30 PM 75.2 °F - 73.4 °F 94% 29.74 in 3.1 mi NNE 5.8 mph - N/A Rain Light Rain Showers
7:00 PM 75 °F - 74 °F 94% 29.76 in - West 4.6 mph - -  
7:00 PM 75.2 °F - 73.4 °F 94% 29.74 in 3.7 mi West 4.6 mph - N/A Rain Light Rain Showers
7:30 PM 75.2 °F - 75.2 °F 100% 29.74 in 3.7 mi South 4.6 mph - N/A Rain Light Rain Showers
8:00 PM 75.2 °F - 75.2 °F 100% 29.74 in 5.0 mi West 4.6 mph - N/A Rain Light Rain Showers
8:30 PM 75.2 °F - 73.4 °F 94% 29.74 in 6.2 mi WNW 5.8 mph - N/A   Mostly Cloudy
9:00 PM 76 °F - 74 °F 91% 29.75 in 6 mi West 6.9 mph - -   Partly Cloudy
9:00 PM 75.2 °F - 73.4 °F 94% 29.74 in 6.2 mi West 6.9 mph - N/A   Mostly Cloudy
9:30 PM 77.0 °F - 73.4 °F 89% 29.74 in 6.2 mi West 6.9 mph - N/A Rain Light Rain
10:00 PM 76 °F - 73 °F 86% 29.77 in - Calm Calm - -  
10:00 PM 75.2 °F - 73.4 °F 94% 29.77 in - Calm Calm - N/A   Clear
10:30 PM 75.2 °F - 73.4 °F 94% 29.77 in 6.2 mi Calm Calm - N/A   Mostly Cloudy
11:00 PM 75.2 °F - 73.4 °F 94% 29.77 in 6.2 mi WSW 4.6 mph - N/A   Mostly Cloudy
11:30 PM 75.2 °F - 73.4 °F 94% 29.77 in 6.2 mi Calm Calm - N/A   Mostly Cloudy